Terminal Aerodrome Forecast
Issued by NWS Pittsburgh, PA

Current Version | Previous Version | Graphics & Text | Print | Product List | Glossary On
Versions: 1 2 3 4 5 6 7 8 9 10 11 12 13 14 15 16 17 18 19 20 21 22 23 24 25 26 27 28 29 30 31
000
FTUS41 KPBZ 010614 CCA
TAFPIT
TAF COR
KPIT 010614Z 0106/0212 32012KT 5SM BR OVC004
     FM011600 32006KT P6SM BKN015
     FM012100 36006KT P6SM BKN025=

USA.gov is the U.S. government's official web portal to all federal, state and local government web resources and services.